Time,TemperatureF,DewpointF,PressureIn,WindDirection,WindDirectionDegrees,WindSpeedMPH,WindSpeedGustMPH,Humidity,HourlyPrecipIn,Conditions,Clouds,dailyrainin,SoftwareType,DateUTC
2013-07-24 00:02:00,70.0,60.0,29.81,NE,48,0.0,0.0,71,0.00,,,0.03,,2013-07-24 05:02:00,
2013-07-24 00:11:00,70.0,61.0,29.82,NE,48,0.0,0.0,72,0.00,,,0.03,,2013-07-24 05:11:00,
2013-07-24 00:22:00,69.0,60.0,29.83,NE,48,0.0,0.0,73,0.00,,,0.03,,2013-07-24 05:22:00,
2013-07-24 00:32:00,69.0,60.0,29.84,NE,48,0.0,2.0,73,0.00,,,0.03,,2013-07-24 05:32:00,
2013-07-24 00:43:00,69.0,60.0,29.84,NE,48,0.0,2.0,74,0.00,,,0.03,,2013-07-24 05:43:00,
2013-07-24 00:52:00,69.0,60.0,29.84,NE,48,0.0,3.0,74,0.00,,,0.03,,2013-07-24 05:52:00,
2013-07-24 01:01:00,69.0,60.0,29.84,NE,48,0.0,2.0,74,0.00,,,0.03,,2013-07-24 06:01:00,
2013-07-24 01:11:00,69.0,60.0,29.84,ENE,60,1.0,5.0,74,0.00,,,0.03,,2013-07-24 06:11:00,
2013-07-24 01:24:00,68.0,59.0,29.85,ENE,60,0.0,2.0,74,0.00,,,0.03,,2013-07-24 06:24:00,
2013-07-24 01:34:00,68.0,59.0,29.86,ENE,60,0.0,3.0,73,0.00,,,0.03,,2013-07-24 06:34:00,
2013-07-24 01:43:00,68.0,59.0,29.86,ENE,60,0.0,0.0,73,0.00,,,0.03,,2013-07-24 06:43:00,
2013-07-24 01:53:00,68.0,59.0,29.86,ENE,60,0.0,0.0,74,0.00,,,0.03,,2013-07-24 06:53:00,
2013-07-24 02:02:00,67.0,59.0,29.86,ENE,60,0.0,0.0,76,0.00,,,0.03,,2013-07-24 07:02:00,
2013-07-24 02:12:00,67.0,59.0,29.86,ENE,60,0.0,0.0,76,0.00,,,0.03,,2013-07-24 07:12:00,
2013-07-24 02:22:00,67.0,60.0,29.87,ENE,60,0.0,0.0,77,0.00,,,0.03,,2013-07-24 07:22:00,
2013-07-24 02:32:00,67.0,60.0,29.87,ENE,60,0.0,0.0,77,0.00,,,0.03,,2013-07-24 07:32:00,
2013-07-24 02:52:00,66.0,59.0,29.87,ENE,60,0.0,0.0,78,0.00,,,0.03,,2013-07-24 07:52:00,
2013-07-24 03:02:00,66.0,59.0,29.86,ENE,60,0.0,0.0,78,0.00,,,0.03,,2013-07-24 08:02:00,
2013-07-24 03:12:00,66.0,59.0,29.86,ENE,60,0.0,0.0,79,0.00,,,0.03,,2013-07-24 08:12:00,
2013-07-24 03:22:00,66.0,60.0,29.86,ENE,60,0.0,0.0,80,0.00,,,0.03,,2013-07-24 08:22:00,
2013-07-24 03:32:00,65.0,59.0,29.86,ENE,60,0.0,0.0,81,0.00,,,0.03,,2013-07-24 08:32:00,
2013-07-24 03:42:00,64.0,58.0,29.86,ENE,60,0.0,0.0,82,0.00,,,0.03,,2013-07-24 08:42:00,
2013-07-24 03:52:00,64.0,59.0,29.88,ENE,60,0.0,0.0,83,0.00,,,0.03,,2013-07-24 08:52:00,
2013-07-24 04:02:00,64.0,59.0,29.87,ENE,60,0.0,0.0,83,0.00,,,0.03,,2013-07-24 09:02:00,
2013-07-24 04:12:00,64.0,59.0,29.87,ENE,60,0.0,0.0,83,0.00,,,0.03,,2013-07-24 09:12:00,
2013-07-24 04:22:00,63.0,58.0,29.86,ENE,60,0.0,0.0,84,0.00,,,0.03,,2013-07-24 09:22:00,
2013-07-24 04:32:00,63.0,58.0,29.86,ENE,60,0.0,0.0,85,0.00,,,0.03,,2013-07-24 09:32:00,
2013-07-24 04:43:00,63.0,58.0,29.86,ENE,60,0.0,0.0,85,0.00,,,0.03,,2013-07-24 09:43:00,
2013-07-24 04:53:00,63.0,58.0,29.87,ENE,60,0.0,0.0,84,0.00,,,0.03,,2013-07-24 09:53:00,
2013-07-24 05:02:00,63.0,58.0,29.87,ENE,60,0.0,0.0,85,0.00,,,0.03,,2013-07-24 10:02:00,
2013-07-24 05:12:00,63.0,58.0,29.88,ENE,60,0.0,0.0,85,0.00,,,0.03,,2013-07-24 10:12:00,
2013-07-24 05:22:00,63.0,58.0,29.88,ENE,60,0.0,0.0,85,0.00,,,0.03,,2013-07-24 10:22:00,
2013-07-24 05:33:00,63.0,58.0,29.88,ENE,60,0.0,0.0,85,0.00,,,0.03,,2013-07-24 10:33:00,
2013-07-24 05:43:00,63.0,59.0,29.88,ENE,60,0.0,0.0,86,0.00,,,0.03,,2013-07-24 10:43:00,
2013-07-24 05:53:00,62.0,58.0,29.88,ENE,60,0.0,0.0,87,0.00,,,0.03,,2013-07-24 10:53:00,
2013-07-24 06:02:00,62.0,58.0,29.88,ENE,60,0.0,0.0,88,0.00,,,0.03,,2013-07-24 11:02:00,
2013-07-24 06:12:00,62.0,59.0,29.88,ENE,60,0.0,0.0,89,0.00,,,0.03,,2013-07-24 11:12:00,
2013-07-24 06:22:00,61.0,58.0,29.89,ENE,60,0.0,0.0,90,0.00,,,0.03,,2013-07-24 11:22:00,
2013-07-24 06:32:00,61.0,58.0,29.89,ENE,60,0.0,0.0,90,0.00,,,0.03,,2013-07-24 11:32:00,
2013-07-24 06:43:00,61.0,58.0,29.90,ENE,60,0.0,0.0,90,0.00,,,0.03,,2013-07-24 11:43:00,
2013-07-24 06:52:00,62.0,59.0,29.90,ENE,60,0.0,0.0,90,0.00,,,0.03,,2013-07-24 11:52:00,
2013-07-24 07:02:00,62.0,59.0,29.91,ENE,60,0.0,0.0,91,0.00,,,0.03,,2013-07-24 12:02:00,
2013-07-24 07:12:00,62.0,59.0,29.92,ENE,60,0.0,0.0,90,0.00,,,0.03,,2013-07-24 12:12:00,
2013-07-24 07:22:00,62.0,59.0,29.92,ENE,60,0.0,0.0,90,0.00,,,0.03,,2013-07-24 12:22:00,
2013-07-24 07:32:00,64.0,60.0,29.92,ENE,60,0.0,0.0,88,0.00,,,0.03,,2013-07-24 12:32:00,
2013-07-24 07:42:00,65.0,60.0,29.93,ENE,60,0.0,0.0,85,0.00,,,0.03,,2013-07-24 12:42:00,
2013-07-24 07:52:00,66.0,60.0,29.92,ENE,60,0.0,0.0,81,0.00,,,0.03,,2013-07-24 12:52:00,
2013-07-24 08:02:00,67.0,60.0,29.92,ENE,60,0.0,0.0,78,0.00,,,0.03,,2013-07-24 13:02:00,
2013-07-24 08:12:00,67.0,60.0,29.92,ENE,60,0.0,0.0,77,0.00,,,0.03,,2013-07-24 13:12:00,
2013-07-24 08:22:00,68.0,59.0,29.92,ENE,60,0.0,0.0,73,0.00,,,0.03,,2013-07-24 13:22:00,
2013-07-24 08:32:00,69.0,59.0,29.92,ENE,60,0.0,2.0,71,0.00,,,0.01,,2013-07-24 13:32:00,
2013-07-24 08:43:00,69.0,59.0,29.92,ENE,60,0.0,0.0,71,0.00,,,0.00,,2013-07-24 13:43:00,
2013-07-24 08:53:00,70.0,60.0,29.92,ENE,60,0.0,0.0,71,0.00,,,0.00,,2013-07-24 13:53:00,
2013-07-24 09:02:00,70.0,59.0,29.92,ENE,60,0.0,0.0,67,0.00,,,0.00,,2013-07-24 14:02:00,
2013-07-24 09:12:00,71.0,59.0,29.92,ENE,60,0.0,0.0,65,0.00,,,0.00,,2013-07-24 14:12:00,
2013-07-24 09:22:00,72.0,58.0,29.92,ENE,60,0.0,0.0,62,0.00,,,0.00,,2013-07-24 14:22:00,
2013-07-24 09:32:00,72.0,58.0,29.92,ENE,60,0.0,0.0,62,0.00,,,0.00,,2013-07-24 14:32:00,
2013-07-24 09:43:00,71.0,61.0,29.93,ENE,60,0.0,0.0,70,0.00,,,0.00,,2013-07-24 14:43:00,
2013-07-24 09:55:00,70.0,61.0,29.93,ENE,60,0.0,0.0,73,0.00,,,0.00,,2013-07-24 14:55:00,
2013-07-24 10:02:00,69.0,60.0,29.93,ENE,60,0.0,1.0,73,0.00,,,0.00,,2013-07-24 15:02:00,
2013-07-24 10:12:00,69.0,59.0,29.92,ENE,60,0.0,1.0,71,0.00,,,0.00,,2013-07-24 15:12:00,
2013-07-24 10:22:00,70.0,62.0,29.92,ENE,60,0.0,0.0,75,0.00,,,0.00,,2013-07-24 15:22:00,
2013-07-24 10:32:00,69.0,61.0,29.92,ENE,60,0.0,0.0,77,0.00,,,0.00,,2013-07-24 15:32:00,
2013-07-24 10:43:00,69.0,60.0,29.93,ENE,60,0.0,0.0,74,0.00,,,0.00,,2013-07-24 15:43:00,
2013-07-24 10:52:00,70.0,60.0,29.92,ENE,60,0.0,2.0,70,0.00,,,0.00,,2013-07-24 15:52:00,
2013-07-24 11:02:00,72.0,61.0,29.92,ENE,59,0.0,0.0,68,0.00,,,0.00,,2013-07-24 16:02:00,
2013-07-24 11:12:00,72.0,59.0,29.91,ENE,59,0.0,2.0,63,0.00,,,0.00,,2013-07-24 16:12:00,
2013-07-24 11:22:00,73.0,59.0,29.92,ENE,59,0.0,2.0,62,0.00,,,0.00,,2013-07-24 16:22:00,
2013-07-24 11:32:00,74.0,60.0,29.92,NE,56,0.0,0.0,62,0.00,,,0.00,,2013-07-24 16:32:00,
2013-07-24 11:43:00,74.0,59.0,29.92,NE,55,0.0,1.0,59,0.00,,,0.00,,2013-07-24 16:43:00,
2013-07-24 11:53:00,75.0,60.0,29.92,South,182,0.0,0.0,59,0.00,,,0.00,,2013-07-24 16:53:00,
2013-07-24 12:02:00,76.0,59.0,29.92,ESE,117,0.0,3.0,56,0.00,,,0.00,,2013-07-24 17:02:00,
2013-07-24 12:12:00,77.0,59.0,29.91,North,355,1.0,7.0,54,0.00,,,0.00,,2013-07-24 17:12:00,
2013-07-24 12:22:00,77.0,60.0,29.91,North,355,0.0,0.0,55,0.00,,,0.00,,2013-07-24 17:22:00,
2013-07-24 12:33:00,77.0,58.0,29.92,North,5,0.0,3.0,52,0.00,,,0.00,,2013-07-24 17:33:00,
2013-07-24 12:43:00,78.0,60.0,29.92,NNE,14,0.0,0.0,54,0.00,,,0.00,,2013-07-24 17:43:00,
2013-07-24 12:53:00,78.0,58.0,29.92,NNE,19,0.0,5.0,50,0.00,,,0.00,,2013-07-24 17:53:00,
2013-07-24 13:02:00,78.0,58.0,29.91,NE,35,1.0,6.0,51,0.00,,,0.00,,2013-07-24 18:02:00,
2013-07-24 13:12:00,78.0,58.0,29.91,NNE,33,1.0,8.0,50,0.00,,,0.00,,2013-07-24 18:12:00,
2013-07-24 13:22:00,78.0,58.0,29.91,NNE,33,1.0,8.0,50,0.00,,,0.00,,2013-07-24 18:22:00,
2013-07-24 14:22:00,80.0,57.0,29.90,North,9,2.0,6.0,46,0.00,,,0.00,,2013-07-24 19:22:00,
2013-07-24 14:32:00,81.0,61.0,29.89,NNW,329,0.0,0.0,50,0.00,,,0.00,,2013-07-24 19:32:00,
2013-07-24 14:43:00,81.0,58.0,29.89,NNW,331,0.0,0.0,46,0.00,,,0.00,,2013-07-24 19:43:00,
2013-07-24 14:53:00,81.0,59.0,29.89,SW,221,0.0,3.0,47,0.00,,,0.00,,2013-07-24 19:53:00,
2013-07-24 15:13:00,83.0,58.0,29.89,North,355,0.0,0.0,42,0.00,,,0.00,,2013-07-24 20:13:00,
2013-07-24 15:22:00,82.0,59.0,29.89,ENE,74,0.0,4.0,45,0.00,,,0.00,,2013-07-24 20:22:00,
2013-07-24 15:32:00,83.0,59.0,29.88,ENE,73,0.0,3.0,44,0.00,,,0.00,,2013-07-24 20:32:00,
2013-07-24 15:42:00,82.0,58.0,29.88,ENE,65,0.0,8.0,44,0.00,,,0.00,,2013-07-24 20:42:00,
2013-07-24 15:52:00,82.0,59.0,29.88,NNE,26,2.0,8.0,46,0.00,,,0.00,,2013-07-24 20:52:00,
2013-07-24 16:12:00,81.0,58.0,29.88,NE,53,2.0,9.0,46,0.00,,,0.00,,2013-07-24 21:12:00,
2013-07-24 16:22:00,82.0,59.0,29.88,NE,35,1.0,8.0,45,0.00,,,0.00,,2013-07-24 21:22:00,
2013-07-24 16:32:00,81.0,56.0,29.87,NE,52,2.0,8.0,43,0.00,,,0.00,,2013-07-24 21:32:00,
2013-07-24 16:52:00,82.0,57.0,29.86,NE,53,1.0,5.0,42,0.00,,,0.00,,2013-07-24 21:52:00,
2013-07-24 17:02:00,82.0,57.0,29.86,North,9,1.0,5.0,43,0.00,,,0.00,,2013-07-24 22:02:00,
2013-07-24 17:12:00,82.0,57.0,29.86,NE,55,1.0,7.0,43,0.00,,,0.00,,2013-07-24 22:12:00,
2013-07-24 17:22:00,82.0,58.0,29.86,NNE,32,2.0,7.0,44,0.00,,,0.00,,2013-07-24 22:22:00,
2013-07-24 17:43:00,81.0,56.0,29.86,NNE,33,0.0,5.0,43,0.00,,,0.00,,2013-07-24 22:43:00,
2013-07-24 17:53:00,81.0,58.0,29.86,NE,45,1.0,2.0,45,0.00,,,0.00,,2013-07-24 22:53:00,
2013-07-24 18:02:00,81.0,59.0,29.86,NE,45,0.0,1.0,47,0.00,,,0.00,,2013-07-24 23:02:00,
2013-07-24 18:12:00,81.0,58.0,29.86,NE,45,0.0,2.0,46,0.00,,,0.00,,2013-07-24 23:12:00,
2013-07-24 18:22:00,81.0,59.0,29.86,NE,46,0.0,1.0,47,0.00,,,0.00,,2013-07-24 23:22:00,
2013-07-24 18:32:00,80.0,57.0,29.86,NE,48,1.0,4.0,45,0.00,,,0.00,,2013-07-24 23:32:00,
2013-07-24 18:43:00,80.0,58.0,29.86,NE,48,0.0,1.0,47,0.00,,,0.00,,2013-07-24 23:43:00,
2013-07-24 18:52:00,80.0,59.0,29.85,NE,48,0.0,0.0,48,0.00,,,0.00,,2013-07-24 23:52:00,
2013-07-24 19:02:00,80.0,60.0,29.85,NE,48,0.0,2.0,50,0.00,,,0.00,,2013-07-25 00:02:00,
2013-07-24 19:12:00,80.0,61.0,29.85,NE,48,0.0,0.0,52,0.00,,,0.00,,2013-07-25 00:12:00,
2013-07-24 19:22:00,80.0,61.0,29.86,NE,48,0.0,0.0,52,0.00,,,0.00,,2013-07-25 00:22:00,
2013-07-24 19:33:00,79.0,61.0,29.86,NE,48,0.0,0.0,55,0.00,,,0.00,,2013-07-25 00:33:00,
2013-07-24 19:43:00,78.0,61.0,29.86,NE,48,0.0,0.0,55,0.00,,,0.00,,2013-07-25 00:43:00,
2013-07-24 19:52:00,78.0,61.0,29.86,NE,48,0.0,0.0,55,0.00,,,0.00,,2013-07-25 00:52:00,
2013-07-24 20:02:00,77.0,60.0,29.87,NE,48,0.0,0.0,56,0.00,,,0.00,,2013-07-25 01:02:00,
2013-07-24 20:12:00,77.0,60.0,29.87,NE,48,0.0,0.0,56,0.00,,,0.00,,2013-07-25 01:12:00,
2013-07-24 20:22:00,77.0,61.0,29.87,NE,48,0.0,0.0,57,0.00,,,0.00,,2013-07-25 01:22:00,
2013-07-24 20:32:00,77.0,61.0,29.86,NE,48,0.0,0.0,57,0.00,,,0.00,,2013-07-25 01:32:00,
2013-07-24 20:43:00,76.0,61.0,29.85,NE,48,0.0,0.0,59,0.00,,,0.00,,2013-07-25 01:43:00,
2013-07-24 20:53:00,76.0,61.0,29.85,NE,48,0.0,0.0,60,0.00,,,0.00,,2013-07-25 01:53:00,
2013-07-24 21:02:00,76.0,61.0,29.85,NE,48,0.0,0.0,60,0.00,,,0.00,,2013-07-25 02:02:00,
2013-07-24 21:12:00,75.0,61.0,29.85,NE,48,0.0,0.0,61,0.00,,,0.00,,2013-07-25 02:12:00,
2013-07-24 21:22:00,75.0,61.0,29.85,NE,48,0.0,0.0,61,0.00,,,0.00,,2013-07-25 02:22:00,
2013-07-24 21:33:00,74.0,61.0,29.84,NE,48,0.0,0.0,63,0.00,,,0.00,,2013-07-25 02:33:00,
2013-07-24 21:43:00,74.0,61.0,29.84,NE,48,0.0,0.0,64,0.00,,,0.00,,2013-07-25 02:43:00,
2013-07-24 21:52:00,73.0,61.0,29.84,NE,48,0.0,0.0,66,0.00,,,0.00,,2013-07-25 02:52:00,
2013-07-24 22:02:00,73.0,62.0,29.84,NE,48,0.0,0.0,68,0.00,,,0.00,,2013-07-25 03:02:00,
2013-07-24 22:14:00,73.0,63.0,29.85,NE,48,0.0,0.0,70,0.00,,,0.00,,2013-07-25 03:14:00,
2013-07-24 22:24:00,72.0,62.0,29.85,NE,48,0.0,0.0,71,0.00,,,0.00,,2013-07-25 03:24:00,
2013-07-24 22:35:00,72.0,63.0,29.85,NE,48,0.0,0.0,73,0.00,,,0.00,,2013-07-25 03:35:00,
2013-07-24 22:44:00,72.0,63.0,29.86,NE,48,0.0,0.0,74,0.00,,,0.00,,2013-07-25 03:44:00,
2013-07-24 22:52:00,72.0,63.0,29.87,NE,48,0.0,0.0,74,0.00,,,0.00,,2013-07-25 03:52:00,
2013-07-24 23:02:00,72.0,64.0,29.87,NE,48,0.0,0.0,75,0.00,,,0.00,,2013-07-25 04:02:00,
2013-07-24 23:12:00,71.0,63.0,29.88,NE,48,0.0,0.0,76,0.00,,,0.00,,2013-07-25 04:12:00,
2013-07-24 23:22:00,71.0,64.0,29.88,NE,48,0.0,0.0,78,0.00,,,0.00,,2013-07-25 04:22:00,
2013-07-24 23:32:00,71.0,64.0,29.88,NE,48,0.0,0.0,79,0.00,,,0.00,,2013-07-25 04:32:00,
2013-07-24 23:43:00,70.0,63.0,29.88,NE,48,0.0,0.0,79,0.00,,,0.00,,2013-07-25 04:43:00,
2013-07-24 23:53:00,70.0,64.0,29.88,NE,48,0.0,0.0,81,0.00,,,0.00,,2013-07-25 04:53:00,